{"data":{"norad_id":61203,"epoch":"2026-05-25T01:29:35.369088Z","epoch_age_seconds":69834,"freshness":"FRESH","line1":"1 61203U 24171D   26145.06221492  .00002169  00000+0  22750-4 0  9998","line2":"2 61203  53.1583 159.7870 0000700  73.9937 286.1158 15.69710525 96390","mean_motion":15.69710525,"eccentricity":7.0e-5,"inclination_deg":53.1583,"raan_deg":159.787,"arg_perigee_deg":73.9937,"mean_anomaly_deg":286.1158,"bstar":2.275e-5,"rev_number":9639,"period_min":91.736659534725,"perigee_km":359.25359771379,"apogee_km":360.19689842852,"semimajor_km":6737.8622480712,"source":"CELESTRAK","updated_at":"2026-05-25T13:38:19.358871Z"}}